Regional Weather Roundup
Issued by NWS

Home | Current Version | Previous Version | Graphics & Text | Print | Product List | Glossary On
Versions: 1 2 3 4 5 6 7 8 9 10 11 12 13 14 15 16 17 18 19 20 21 22 23 24 25 26 27 28 29 30 31 32 33 34 35 36 37 38 39 40 41 42 43 44 45 46 47 48 49 50
000
ASUS43 KLOT 292003
RWRIL

ILLINOIS REGIONAL WEATHER ROUNDUP
NATIONAL WEATHER SERVICE CHICAGO/ROMEOVILLE IL
300 PM CDT SAT APR 29 2017

NOTE: "FAIR" INDICATES FEW OR NO CLOUDS BELOW 12,000 FEET WITH NO
SIGNIFICANT WEATHER AND/OR OBSTRUCTIONS TO VISIBILITY.

* THESE STATIONS ARE NOT UNDER NWS QUALITY CONTROL. THEY ALSO MAY NOT
  REPORT WEATHER SUCH AS PRECIPITATION OR FOG.

ILZ001-002-007-009-015-016-024-292100-
NORTHWEST ILLINOIS

CITY           SKY/WX    TMP DP  RH WIND       PRES   REMARKS
MOLINE         RAIN      43  39  86 NE17      30.09S FOG
STERLING*      LGT RAIN  41  38  89 NE15G21   30.12R FOG
SAVANNA*       RAIN      42  39  89 NE12G21   30.12S
$$

ILZ003-004-008-010-011-017-018-292100-
NORTH CENTRAL ILLINOIS

CITY           SKY/WX    TMP DP  RH WIND       PRES   REMARKS
ROCKFORD       LGT RAIN  41  35  79 NE25G32   30.12F
FREEPORT*      LGT RAIN  41  36  81 NE17G24   30.15S
ROCHELLE*      LGT RAIN  39  37  91 NE21G33   30.11S WCI  29
DE KALB*       LGT RAIN  38  37  93 NE22G35   30.09F WCI  28
PERU*          RAIN      39  37  90 NE20      30.10R WCI  30
$$

ILZ005-006-012>014-019>023-292100-
NORTHEAST ILLINOIS

CITY           SKY/WX    TMP DP  RH WIND       PRES   REMARKS
CHICAGO-OHARE  RAIN      40  36  86 NE17G26   30.13F FOG
CHICAGO-MIDWAY LGT RAIN  41  39  93 NE16G25   30.15R FOG
AURORA         RAIN      40  38  93 NE18G30   30.11S FOG
LANSING*       RAIN      41  40  97 NE12G20   30.15R
WAUKEGAN       RAIN      38  35  89 N18G29    30.16F FOG     WCI  28
DUPAGE AIRPORT RAIN      39  38  96 NE20G25   30.11F FOG     WCI  29
WHEELING       LGT RAIN  38  37  97 N22G31    30.15F FOG     WCI  27
MORRIS*        RAIN      41  39  93 NE12G20   30.08F
NORTHERLY ISL    N/A     40  37  89 N29         N/A
$$

LMZ740>746-292100-
SOUTHERN LAKE MICHIGAN

STATION/POSITION SKY/WX   TEMP    WIND        PRES    VSBY  WAVE
                          AIR SEA DIR/SP/G                  HT/PER
                          (F)     (DEG/KT/KT) (MB)    (MI)  (FT/S)
SOUTHERN BUOY              40 41   10/ 19/ 23 1023.4          6/ 6
HARRISON CRIB              40      10/ 33/ 36   N/A
BURNHAM HARBOR             40     360/ 18/ 29   N/A
CALUMET HARBOR             41     350/ 16/ 24 1021.0R
BURNS HARBOR               42      30/ 24/ 29 1020.3R
MICHIGAN CITY              42      10/ 26/ 28   N/A
MICHIGAN CITY 6N           42 47                N/A           7/ 6
ST. JOSEPH                 45 48   40/ 16/ 19 1021.9F         5/ 5
$$

ILZ025>027-034>036-040-047-049-050-058-095>099-292100-
WEST-CENTRAL ILLINOIS

CITY           SKY/WX    TMP DP  RH WIND       PRES   REMARKS
QUINCY         TSTM      45  44  97 N22G31    29.90F VSB 1
GALESBURG*     TSTM      41  39  94 NE24      30.02F
MACOMB*        TSTM      42  41  97 NE24G33   30.03R VSB 1
JACKSONVILLE*  TSTM      49  48  95 NE29G38     N/A
PITTSFIELD*    RAIN      48  47  99 NE22      29.84F
$$

ILZ028>032-037-038-041>044-048-051>054-059>061-292100-
CENTRAL ILLINOIS

CITY           SKY/WX    TMP DP  RH WIND       PRES   REMARKS
PONTIAC        CLOUDY    45  44  99 NE25G31   30.03F
BLOOMINGTON    LGT RAIN  45  45 100 NE24G33   29.98F
DECATUR        CLOUDY    56  56 100 E17G25    29.91F FOG
PEORIA         HVY RAIN  43  42  97 NE17G26   30.02R FOG
SPRINGFIELD    LGT RAIN  53  51  93 NE20      29.89S FOG
TAYLORVILLE    CLOUDY    58  58  99 E13       29.87F FOG
$$

ILZ033-039-045-046-055>057-062-063-292100-
EAST-CENTRAL ILLINOIS

CITY           SKY/WX    TMP DP  RH WIND       PRES   REMARKS
CHAMPAIGN      CLOUDY    57  54  89 NE21      29.94F FOG
RANTOUL*       CLOUDY    55  53  94 NE23      29.97F FOG
MATTOON        CLOUDY    67  65  93 E13       29.90F
PARIS*         CLOUDY    64  63  97 NE10      29.97F
$$

ILZ079-100>102-292100-
SOUTHWEST ILLINOIS

CITY           SKY/WX    TMP DP  RH WIND       PRES   REMARKS
BELLEVILLE     CLOUDY    75  73  91 E21       29.76F
CAHOKIA*       CLOUDY    75  67  76 SE17G24   29.75F
SPARTA*        CLOUDY    77  70  78 SE16G24   29.80F
$$

ILZ064>066-069>071-074>076-080>082-084>086-088>090-092>094-292100-
SOUTH-CENTRAL ILLINOIS

CITY           SKY/WX    TMP DP  RH WIND       PRES   REMARKS
CARBONDALE     CLOUDY    80  70  71 S13G22    29.85F HX  83
CAIRO*         CLOUDY    84  70  62 S12       29.86F HX  88
EFFINGHAM*     CLOUDY    74  69  82 E14       29.90F
MARION         PTSUNNY   82  72  69 S9G18     29.88S HX  87
MT. VERNON     CLOUDY    78  70  76 SE7       29.87F HX  80
CENTRALIA*     PTSUNNY   76  70  80 SE15G24   29.83F
SALEM*         PTSUNNY   77  68  72 SE9G17    29.86F
$$

ILZ067-068-072-073-078-083-087-091-292100-
SOUTHEAST ILLINOIS

CITY           SKY/WX    TMP DP  RH WIND       PRES   REMARKS
LAWRENCEVILLE  MOSUNNY   79  66  64 SE17      29.93F HX  81
FLORA*         PTSUNNY   78  69  73 SE17      29.90F HX  80
FAIRFIELD*     CLOUDY    79  69  72 SE9       29.89F HX  81
HARRISBURG*    PTSUNNY   82  71  68 S16G24    29.89F HX  86
ROBINSON*      PTSUNNY   76  65  69 SE13      29.94F
CARMI*         CLOUDY    80  72  77 SE17      29.89F HX  83
$$

ABBREVIATIONS USED IN REMARKS
   TC - TEMPERATURE IN CELSIUS
  WCI - WIND CHILL INDEX
   HX - HEAT INDEX
  VSB - VISIBILITY
$$





USA.gov is the U.S. government's official web portal to all federal, state and local government web resources and services.